| time (UTC) | temp F | wind direction | speed MPH | gust MPH | rain 1hr in | rain 24hr in | rain mn in | humidity % | barometer mb |
| 20260902072004 | 79 | 200 | 3.0 | 7.0 | 0.00 | 0.00 | 0.00 | 61 | 1011.7 |
| 20260902071504 | 80 | 142 | 4.0 | 7.0 | 0.00 | 0.00 | 0.00 | 61 | 1011.8 |
| 20260902071004 | 80 | 140 | 2.0 | 6.0 | 0.00 | 0.00 | 0.00 | 60 | 1011.8 |
| 20260902070503 | 80 | 212 | 3.0 | 8.0 | 0.00 | 0.00 | 0.00 | 60 | 1011.8 |
| 20260902070004 | 80 | 202 | 3.0 | 8.0 | 0.00 | 0.00 | 0.00 | 60 | 1011.8 |
| 20260902065504 | 80 | 171 | 4.0 | 8.0 | 0.00 | 0.00 | 0.00 | 60 | 1011.8 |
| 20260902065003 | 80 | 219 | 4.0 | 8.0 | 0.00 | 0.00 | 0.00 | 60 | 1011.8 |
| 20260902064503 | 80 | 207 | 4.0 | 8.0 | 0.00 | 0.00 | 0.00 | 60 | 1011.8 |
| 20260902064002 | 81 | 201 | 4.0 | 8.0 | 0.00 | 0.00 | 0.00 | 59 | 1011.8 |
| 20260902063503 | 81 | 232 | 2.0 | 8.0 | 0.00 | 0.00 | 0.00 | 59 | 1011.8 |
| 20260902062502 | 81 | 234 | 2.0 | 8.0 | 0.00 | 0.00 | 0.00 | 59 | 1011.7 |
| 20260902060502 | 81 | 190 | 4.0 | 9.0 | 0.00 | 0.00 | 0.00 | 59 | 1011.4 |
| 20260902060002 | 81 | 137 | 4.0 | 9.0 | 0.00 | 0.00 | 0.00 | 59 | 1011.2 |
| 20260902055504 | 81 | 137 | 4.0 | 9.0 | 0.00 | 0.00 | 0.00 | 59 | 1011.2 |
| 20260902055002 | 81 | 150 | 3.0 | 10.0 | 0.00 | 0.00 | 0.00 | 60 | 1011.2 |
| 20260902053957 | 82 | 102 | 4.0 | 7.0 | 0.00 | 0.00 | 0.00 | 60 | 1011.2 |
| 20260902053457 | 81 | 157 | 4.0 | 7.0 | 0.00 | 0.00 | 0.00 | 60 | 1011.4 |
| 20260902051957 | 81 | 162 | 2.0 | 7.0 | 0.00 | 0.00 | 0.00 | 62 | 1011.5 |
| 20260902051456 | 81 | 163 | 2.0 | 6.0 | 0.00 | 0.00 | 0.00 | 63 | 1011.6 |
| 20260902050456 | 81 | 193 | 2.0 | 4.0 | 0.00 | 0.00 | 0.00 | 63 | 1011.6 |
| 20260902045956 | 81 | 142 | 2.0 | 4.0 | 0.00 | 0.00 | 0.00 | 64 | 1011.6 |
| 20260902045455 | 81 | 123 | 1.0 | 4.0 | 0.00 | 0.00 | 0.00 | 64 | 1011.6 |
| 20260902043955 | 82 | 144 | 2.0 | 5.0 | 0.00 | 0.00 | 0.00 | 63 | 1011.5 |
| 20260902043455 | 82 | 119 | 2.0 | 5.0 | 0.00 | 0.00 | 0.00 | 64 | 1011.6 |
| 20260902042955 | 82 | 126 | 3.0 | 5.0 | 0.00 | 0.00 | 0.00 | 63 | 1011.7 |
| 20260902042455 | 82 | 140 | 2.0 | 5.0 | 0.00 | 0.00 | 0.00 | 63 | 1011.6 |
| 20260902041955 | 83 | 168 | 2.0 | 5.0 | 0.00 | 0.00 | 0.00 | 63 | 1011.5 |
| 20260902041454 | 83 | 178 | 3.0 | 5.0 | 0.00 | 0.00 | 0.00 | 63 | 1011.5 |
| 20260902040454 | 83 | 115 | 3.0 | 8.0 | 0.00 | 0.00 | 0.00 | 63 | 1011.6 |
| 20260902035954 | 83 | 137 | 4.0 | 8.0 | 0.00 | 0.00 | 0.00 | 63 | 1011.5 |
| 20260902035453 | 83 | 153 | 3.0 | 6.0 | 0.00 | 0.00 | 0.00 | 64 | 1011.6 |
| 20260902034955 | 83 | 150 | 2.0 | 6.0 | 0.00 | 0.00 | 0.00 | 65 | 1011.6 |
| 20260902034453 | 83 | 169 | 2.0 | 5.0 | 0.00 | 0.00 | 0.00 | 65 | 1011.7 |
| 20260902033453 | 82 | 165 | 2.0 | 5.0 | 0.00 | 0.00 | 0.00 | 67 | 1011.6 |
| 20260902032953 | 82 | 170 | 2.0 | 5.0 | 0.00 | 0.00 | 0.00 | 67 | 1011.6 |
| 20260902032453 | 83 | 121 | 2.0 | 4.0 | 0.00 | 0.00 | 0.00 | 68 | 1011.6 |
| 20260902031950 | 83 | 153 | 2.0 | 4.0 | 0.00 | 0.00 | 0.00 | 67 | 1011.6 |
| 20260902031450 | 83 | 115 | 2.0 | 3.0 | 0.00 | 0.00 | 0.00 | 66 | 1011.5 |
| 20260902030950 | 83 | 193 | 1.0 | 4.0 | 0.00 | 0.00 | 0.00 | 65 | 1011.5 |
| 20260902025945 | 84 | 149 | 1.0 | 4.0 | 0.00 | 0.00 | 0.00 | 64 | 1011.4 |
| 20260902025444 | 84 | 137 | 3.0 | 4.0 | 0.00 | 0.00 | 0.00 | 64 | 1011.4 |
| 20260902024945 | 84 | 119 | 2.0 | 4.0 | 0.00 | 0.00 | 0.00 | 64 | 1011.5 |
| 20260902023944 | 85 | 153 | 1.0 | 3.0 | 0.00 | 0.00 | 0.00 | 63 | 1011.3 |
| 20260902023443 | 85 | 93 | 1.0 | 3.0 | 0.00 | 0.00 | 0.00 | 63 | 1011.2 |
| 20260902022938 | 85 | 158 | 2.0 | 4.0 | 0.00 | 0.00 | 0.00 | 63 | 1011.2 |
| 20260902022437 | 85 | 113 | 2.0 | 4.0 | 0.00 | 0.00 | 0.00 | 63 | 1011.1 |
| 20260902021938 | 85 | 146 | 2.0 | 5.0 | 0.00 | 0.00 | 0.00 | 63 | 1011.1 |
| 20260902021438 | 85 | 137 | 3.0 | 5.0 | 0.00 | 0.00 | 0.00 | 63 | 1011.0 |
| 20260902020437 | 86 | 119 | 2.0 | 4.0 | 0.00 | 0.00 | 0.00 | 62 | 1010.9 |
| 20260902015937 | 86 | 119 | 2.0 | 3.0 | 0.00 | 0.00 | 0.00 | 61 | 1010.9 |
| 20260902015439 | 86 | 178 | 2.0 | 4.0 | 0.00 | 0.00 | 0.00 | 61 | 1010.8 |
| 20260902014436 | 87 | 168 | 2.0 | 4.0 | 0.00 | 0.00 | 0.00 | 60 | 1010.5 |
| 20260902013936 | 87 | 123 | 2.0 | 3.0 | 0.00 | 0.00 | 0.00 | 59 | 1010.5 |
| 20260902013435 | 87 | 142 | 2.0 | 3.0 | 0.00 | 0.00 | 0.00 | 58 | 1010.6 |
| 20260902012935 | 87 | 123 | 2.0 | 3.0 | 0.00 | 0.00 | 0.00 | 58 | 1010.5 |
| 20260902012436 | 88 | 119 | 2.0 | 3.0 | 0.00 | 0.00 | 0.00 | 57 | 1010.4 |
| 20260902011935 | 88 | 119 | 1.0 | 4.0 | 0.00 | 0.00 | 0.00 | 56 | 1010.4 |
| 20260902011435 | 89 | 126 | 2.0 | 4.0 | 0.00 | 0.00 | 0.00 | 56 | 1010.3 |
| 20260902010935 | 89 | 111 | 2.0 | 5.0 | 0.00 | 0.00 | 0.00 | 54 | 1010.4 |
| 20260902010434 | 90 | 123 | 2.0 | 6.0 | 0.00 | 0.00 | 0.00 | 53 | 1010.3 |
| 20260902005934 | 90 | 126 | 3.0 | 6.0 | 0.00 | 0.00 | 0.00 | 52 | 1010.3 |
| 20260902005435 | 90 | 178 | 3.0 | 7.0 | 0.00 | 0.00 | 0.00 | 52 | 1010.2 |
| 20260902004934 | 91 | 173 | 4.0 | 8.0 | 0.00 | 0.00 | 0.00 | 52 | 1010.2 |
| 20260902003934 | 91 | 183 | 4.0 | 8.0 | 0.00 | 0.00 | 0.00 | 51 | 1010.2 |
| 20260902003433 | 91 | 168 | 4.0 | 7.0 | 0.00 | 0.00 | 0.00 | 51 | 1010.0 |
| 20260902002433 | 92 | 198 | 3.0 | 6.0 | 0.00 | 0.00 | 0.00 | 50 | 1009.9 |
| 20260902001933 | 92 | 162 | 2.0 | 6.0 | 0.00 | 0.00 | 0.00 | 50 | 1010.2 |
| 20260902001433 | 92 | 178 | 3.0 | 7.0 | 0.00 | 0.00 | 0.00 | 50 | 1010.0 |
| 20260902000932 | 93 | 214 | 2.0 | 7.0 | 0.00 | 0.00 | 0.00 | 50 | 1010.2 |
| 20260902000432 | 93 | 200 | 4.0 | 7.0 | 0.00 | 0.00 | 0.00 | 49 | 1010.2 |
| 20260901235932 | 93 | 221 | 4.0 | 10.0 | 0.00 | 0.00 | 0.00 | 49 | 1010.3 |
| 20260901235432 | 94 | 196 | 5.0 | 10.0 | 0.00 | 0.00 | 0.00 | 49 | 1010.4 |
| 20260901234431 | 94 | 200 | 4.0 | 12.0 | 0.00 | 0.00 | 0.00 | 49 | 1010.4 |
| 20260901233431 | 94 | 156 | 5.0 | 10.0 | 0.00 | 0.00 | 0.00 | 49 | 1010.5 |
| 20260901232930 | 94 | 163 | 6.0 | 10.0 | 0.00 | 0.00 | 0.00 | 49 | 1010.4 |
| 20260901232430 | 94 | 195 | 5.0 | 9.0 | 0.00 | 0.00 | 0.00 | 50 | 1010.6 |
| 20260901231931 | 94 | 208 | 3.0 | 10.0 | 0.00 | 0.00 | 0.00 | 51 | 1010.5 |
| 20260901225930 | 94 | 232 | 7.0 | 14.0 | 0.00 | 0.00 | 0.00 | 50 | 1010.7 |
| 20260901224927 | 95 | 234 | 7.0 | 12.0 | 0.00 | 0.00 | 0.00 | 50 | 1010.8 |
| 20260901224428 | 95 | 187 | 4.0 | 11.0 | 0.00 | 0.00 | 0.00 | 51 | 1010.7 |
| 20260901223927 | 95 | 203 | 4.0 | 11.0 | 0.00 | 0.00 | 0.00 | 50 | 1010.8 |
| 20260901223428 | 95 | 196 | 6.0 | 14.0 | 0.00 | 0.00 | 0.00 | 49 | 1010.8 |
| 20260901222427 | 95 | 257 | 6.0 | 16.0 | 0.00 | 0.00 | 0.00 | 50 | 1010.8 |
| 20260901221427 | 95 | 196 | 7.0 | 14.0 | 0.00 | 0.00 | 0.00 | 49 | 1010.9 |
| 20260901220926 | 95 | 215 | 6.0 | 11.0 | 0.00 | 0.00 | 0.00 | 51 | 1011.0 |
| 20260901220424 | 94 | 193 | 5.0 | 15.0 | 0.00 | 0.00 | 0.00 | 51 | 1011.0 |
| 20260901215924 | 94 | 203 | 7.0 | 16.0 | 0.00 | 0.00 | 0.00 | 49 | 1011.0 |
| 20260901215425 | 94 | 170 | 6.0 | 15.0 | 0.00 | 0.00 | 0.00 | 51 | 1011.0 |
| 20260901214924 | 94 | 203 | 7.0 | 15.0 | 0.00 | 0.00 | 0.00 | 51 | 1010.9 |
| 20260901214423 | 94 | 188 | 8.0 | 14.0 | 0.00 | 0.00 | 0.00 | 51 | 1011.1 |
| 20260901213924 | 94 | 227 | 6.0 | 13.0 | 0.00 | 0.00 | 0.00 | 51 | 1011.1 |
| 20260901213424 | 94 | 171 | 6.0 | 11.0 | 0.00 | 0.00 | 0.00 | 51 | 1011.0 |
| 20260901212423 | 94 | 203 | 5.0 | 14.0 | 0.00 | 0.00 | 0.00 | 51 | 1011.2 |
| 20260901211923 | 94 | 210 | 8.0 | 14.0 | 0.00 | 0.00 | 0.00 | 51 | 1011.3 |
| 20260901211424 | 94 | 262 | 7.0 | 13.0 | 0.00 | 0.00 | 0.00 | 52 | 1011.3 |
| 20260901210423 | 94 | 194 | 4.0 | 11.0 | 0.00 | 0.00 | 0.00 | 53 | 1011.2 |
| 20260901205923 | 94 | 189 | 5.0 | 11.0 | 0.00 | 0.00 | 0.00 | 54 | 1011.3 |
| 20260901205425 | 94 | 201 | 6.0 | 17.0 | 0.00 | 0.00 | 0.00 | 52 | 1011.4 |
| 20260901204923 | 94 | 200 | 10.0 | 17.0 | 0.00 | 0.00 | 0.00 | 51 | 1011.5 |
| 20260901204423 | 94 | 196 | 7.0 | 12.0 | 0.00 | 0.00 | 0.00 | 51 | 1011.4 |
| 20260901203422 | 93 | 211 | 5.0 | 13.0 | 0.00 | 0.00 | 0.00 | 52 | 1011.5 |
| 20260901202922 | 93 | 162 | 6.0 | 14.0 | 0.00 | 0.00 | 0.00 | 52 | 1011.6 |
| 20260901202422 | 93 | 214 | 6.0 | 14.0 | 0.00 | 0.00 | 0.00 | 52 | 1011.6 |
| 20260901201922 | 94 | 200 | 5.0 | 12.0 | 0.00 | 0.00 | 0.00 | 53 | 1011.7 |
| 20260901200921 | 93 | 210 | 3.0 | 12.0 | 0.00 | 0.00 | 0.00 | 55 | 1011.7 |
| 20260901200422 | 93 | 198 | 5.0 | 14.0 | 0.00 | 0.00 | 0.00 | 53 | 1011.7 |
| 20260901195921 | 93 | 187 | 5.0 | 14.0 | 0.00 | 0.00 | 0.00 | 51 | 1011.8 |
| 20260901195422 | 93 | 226 | 7.0 | 12.0 | 0.00 | 0.00 | 0.00 | 51 | 1011.9 |
| 20260901194921 | 93 | 162 | 5.0 | 12.0 | 0.00 | 0.00 | 0.00 | 53 | 1011.9 |
| 20260901194421 | 93 | 123 | 4.0 | 11.0 | 0.00 | 0.00 | 0.00 | 53 | 1011.9 |
| 20260901193421 | 93 | 202 | 4.0 | 13.0 | 0.00 | 0.00 | 0.00 | 50 | 1012.0 |
| 20260901192920 | 93 | 123 | 6.0 | 13.0 | 0.00 | 0.00 | 0.00 | 50 | 1012.1 |
| 20260901192420 | 93 | 129 | 5.0 | 10.0 | 0.00 | 0.00 | 0.00 | 50 | 1012.2 |
| 20260901191920 | 93 | 202 | 6.0 | 10.0 | 0.00 | 0.00 | 0.00 | 52 | 1012.3 |
| 20260901191419 | 93 | 191 | 4.0 | 10.0 | 0.00 | 0.00 | 0.00 | 50 | 1012.3 |
| 20260901190920 | 92 | 123 | 4.0 | 12.0 | 0.00 | 0.00 | 0.00 | 52 | 1012.4 |
| 20260901190419 | 92 | 115 | 7.0 | 12.0 | 0.00 | 0.00 | 0.00 | 51 | 1012.3 |
| 20260901185919 | 92 | 205 | 5.0 | 10.0 | 0.00 | 0.00 | 0.00 | 51 | 1012.4 |
| 20260901185420 | 92 | 158 | 4.0 | 10.0 | 0.00 | 0.00 | 0.00 | 53 | 1012.5 |
| 20260901184919 | 92 | 184 | 3.0 | 8.0 | 0.00 | 0.00 | 0.00 | 52 | 1012.5 |
| 20260901183918 | 92 | 93 | 4.0 | 9.0 | 0.00 | 0.00 | 0.00 | 51 | 1012.6 |
| 20260901182919 | 91 | 137 | 4.0 | 10.0 | 0.00 | 0.00 | 0.00 | 53 | 1012.7 |
| 20260901182418 | 91 | 208 | 4.0 | 11.0 | 0.00 | 0.00 | 0.00 | 51 | 1012.7 |
| 20260901181918 | 92 | 189 | 5.0 | 11.0 | 0.00 | 0.00 | 0.00 | 53 | 1012.7 |
| 20260901181418 | 92 | 173 | 4.0 | 9.0 | 0.00 | 0.00 | 0.00 | 52 | 1012.9 |
| 20260901180918 | 91 | 259 | 4.0 | 10.0 | 0.00 | 0.00 | 0.00 | 56 | 1012.8 |
| 20260901180417 | 91 | 140 | 4.0 | 10.0 | 0.00 | 0.00 | 0.00 | 53 | 1012.9 |
| 20260901175917 | 91 | 221 | 4.0 | 9.0 | 0.00 | 0.00 | 0.00 | 52 | 1012.9 |
| 20260901174416 | 91 | 227 | 3.0 | 7.0 | 0.00 | 0.00 | 0.00 | 52 | 1013.1 |
| 20260901173916 | 91 | 151 | 4.0 | 8.0 | 0.00 | 0.00 | 0.00 | 52 | 1013.0 |
| 20260901173416 | 90 | 129 | 4.0 | 8.0 | 0.00 | 0.00 | 0.00 | 55 | 1013.0 |
| 20260901172917 | 90 | 234 | 3.0 | 8.0 | 0.00 | 0.00 | 0.00 | 53 | 1013.1 |
| 20260901172416 | 90 | 160 | 4.0 | 9.0 | 0.00 | 0.00 | 0.00 | 53 | 1013.1 |
| 20260901171916 | 90 | 196 | 4.0 | 9.0 | 0.00 | 0.00 | 0.00 | 53 | 1013.3 |
| 20260901171416 | 90 | 167 | 4.0 | 7.0 | 0.00 | 0.00 | 0.00 | 53 | 1013.1 |
| 20260901170916 | 90 | 153 | 4.0 | 8.0 | 0.00 | 0.00 | 0.00 | 53 | 1013.1 |
| 20260901170416 | 89 | 188 | 3.0 | 8.0 | 0.00 | 0.00 | 0.00 | 51 | 1013.3 |
| 20260901165915 | 89 | 126 | 2.0 | 7.0 | 0.00 | 0.00 | 0.00 | 53 | 1013.4 |
| 20260901165417 | 89 | 230 | 3.0 | 7.0 | 0.00 | 0.00 | 0.00 | 54 | 1013.4 |
| 20260901164915 | 89 | 178 | 4.0 | 10.0 | 0.00 | 0.00 | 0.00 | 53 | 1013.5 |
| 20260901164415 | 89 | 170 | 2.0 | 10.0 | 0.00 | 0.00 | 0.00 | 53 | 1013.4 |
| 20260901163415 | 89 | 185 | 4.0 | 6.0 | 0.00 | 0.00 | 0.00 | 53 | 1013.4 |
| 20260901162914 | 89 | 137 | 2.0 | 8.0 | 0.00 | 0.00 | 0.00 | 54 | 1013.5 |
| 20260901162415 | 88 | 101 | 4.0 | 8.0 | 0.00 | 0.00 | 0.00 | 53 | 1013.4 |
| 20260901161415 | 88 | 225 | 3.0 | 6.0 | 0.00 | 0.00 | 0.00 | 56 | 1013.6 |
| 20260901160914 | 88 | 230 | 2.0 | 9.0 | 0.00 | 0.00 | 0.00 | 55 | 1013.5 |
| 20260901160414 | 88 | 162 | 3.0 | 9.0 | 0.00 | 0.00 | 0.00 | 53 | 1013.5 |
| 20260901155914 | 87 | 265 | 2.0 | 6.0 | 0.00 | 0.00 | 0.00 | 60 | 1013.4 |
| 20260901155415 | 87 | 254 | 3.0 | 6.0 | 0.00 | 0.00 | 0.00 | 55 | 1013.3 |
| 20260901154913 | 87 | 190 | 3.0 | 5.0 | 0.00 | 0.00 | 0.00 | 60 | 1013.3 |
| 20260901153913 | 86 | 221 | 2.0 | 5.0 | 0.00 | 0.00 | 0.00 | 57 | 1013.4 |
| 20260901153413 | 86 | 194 | 2.0 | 5.0 | 0.00 | 0.00 | 0.00 | 56 | 1013.4 |
| 20260901152413 | 85 | 167 | 2.0 | 5.0 | 0.00 | 0.00 | 0.00 | 58 | 1013.3 |
| 20260901150912 | 85 | 196 | 2.0 | 6.0 | 0.00 | 0.00 | 0.00 | 63 | 1013.4 |
| 20260901150412 | 84 | 234 | 2.0 | 7.0 | 0.00 | 0.00 | 0.00 | 62 | 1013.4 |
| 20260901145413 | 84 | 238 | 3.0 | 7.0 | 0.00 | 0.00 | 0.00 | 63 | 1013.5 |
| 20260901144912 | 84 | 245 | 4.0 | 7.0 | 0.00 | 0.00 | 0.00 | 64 | 1013.5 |
| 20260901144411 | 83 | 196 | 3.0 | 7.0 | 0.00 | 0.00 | 0.00 | 63 | 1013.6 |
| 20260901143412 | 83 | 193 | 2.0 | 5.0 | 0.00 | 0.00 | 0.00 | 65 | 1013.6 |
| 20260901142911 | 83 | 168 | 2.0 | 5.0 | 0.00 | 0.00 | 0.00 | 66 | 1013.7 |
| 20260901142411 | 83 | 153 | 3.0 | 5.0 | 0.00 | 0.00 | 0.00 | 69 | 1013.6 |
| 20260901141911 | 82 | 167 | 2.0 | 5.0 | 0.00 | 0.00 | 0.00 | 70 | 1013.7 |
| 20260901141411 | 82 | 146 | 2.0 | 5.0 | 0.00 | 0.00 | 0.00 | 71 | 1013.8 |
| 20260901140911 | 81 | 165 | 2.0 | 5.0 | 0.00 | 0.00 | 0.00 | 72 | 1013.8 |
| 20260901135410 | 80 | 137 | 2.0 | 5.0 | 0.00 | 0.00 | 0.00 | 75 | 1013.9 |
| 20260901134908 | 79 | 178 | 2.0 | 4.0 | 0.00 | 0.00 | 0.00 | 77 | 1013.9 |
| 20260901134409 | 79 | 186 | 2.0 | 3.0 | 0.00 | 0.00 | 0.00 | 78 | 1013.8 |
| 20260901133909 | 78 | 188 | 2.0 | 4.0 | 0.00 | 0.00 | 0.00 | 80 | 1013.7 |
| 20260901133408 | 78 | 126 | 1.0 | 4.0 | 0.00 | 0.00 | 0.00 | 82 | 1013.7 |
| 20260901131907 | 76 | 137 | 1.0 | 3.0 | 0.00 | 0.00 | 0.00 | 88 | 1013.7 |
| 20260901131406 | 75 | 146 | 1.0 | 3.0 | 0.00 | 0.00 | 0.00 | 88 | 1013.8 |
| 20260901130407 | 74 | 265 | 0.0 | 2.0 | 0.00 | 0.00 | 0.00 | 88 | 1013.8 |
| 20260901125405 | 74 | 93 | 2.0 | 3.0 | 0.00 | 0.00 | 0.00 | 89 | 1013.7 |
| 20260901124906 | 73 | 126 | 1.0 | 2.0 | 0.00 | 0.00 | 0.00 | 89 | 1013.6 |
| 20260901124406 | 73 | 51 | 0.0 | 2.0 | 0.00 | 0.00 | 0.00 | 89 | 1013.7 |
| 20260901123905 | 73 | 68 | 0.0 | 2.0 | 0.00 | 0.00 | 0.00 | 89 | 1013.6 |
| 20260901123405 | 73 | 126 | 0.0 | 2.0 | 0.00 | 0.00 | 0.00 | 89 | 1013.5 |
| 20260901122905 | 73 | 61 | 1.0 | 2.0 | 0.00 | 0.00 | 0.00 | 89 | 1013.5 |
| 20260901122404 | 73 | 334 | 1.0 | 2.0 | 0.00 | 0.00 | 0.00 | 89 | 1013.3 |
| 20260901121906 | 73 | 247 | 0.0 | 2.0 | 0.00 | 0.00 | 0.00 | 89 | 1013.0 |
| 20260901121404 | 72 | 51 | 1.0 | 2.0 | 0.00 | 0.00 | 0.00 | 89 | 1013.0 |
| 20260901120904 | 72 | 93 | 0.0 | 3.0 | 0.00 | 0.00 | 0.00 | 89 | 1012.9 |
| 20260901120403 | 72 | 120 | 1.0 | 3.0 | 0.00 | 0.00 | 0.00 | 90 | 1012.8 |
| 20260901115858 | 73 | 120 | 1.0 | 3.0 | 0.00 | 0.00 | 0.00 | 90 | 1012.7 |
| 20260901114859 | 73 | 111 | 1.0 | 3.0 | 0.00 | 0.00 | 0.00 | 90 | 1012.8 |
| 20260901114400 | 73 | 120 | 1.0 | 3.0 | 0.00 | 0.00 | 0.00 | 90 | 1012.7 |
| 20260901113859 | 73 | 132 | 2.0 | 3.0 | 0.00 | 0.00 | 0.00 | 90 | 1012.8 |
| 20260901113358 | 73 | 105 | 2.0 | 3.0 | 0.00 | 0.00 | 0.00 | 90 | 1012.8 |
| 20260901112858 | 73 | 146 | 2.0 | 3.0 | 0.00 | 0.00 | 0.00 | 90 | 1012.9 |
| 20260901112357 | 73 | 164 | 2.0 | 4.0 | 0.00 | 0.00 | 0.00 | 90 | 1012.9 |
| 20260901111358 | 73 | 120 | 1.0 | 2.0 | 0.00 | 0.00 | 0.00 | 90 | 1013.0 |
| 20260901110858 | 74 | 265 | 0.0 | 1.0 | 0.00 | 0.00 | 0.00 | 90 | 1013.0 |
| 20260901110357 | 74 | 93 | 0.0 | 2.0 | 0.00 | 0.00 | 0.00 | 90 | 1013.1 |
| 20260901105853 | 74 | 137 | 0.0 | 2.0 | 0.00 | 0.00 | 0.00 | 90 | 1013.1 |
| 20260901105352 | 74 | 162 | 0.0 | 3.0 | 0.00 | 0.00 | 0.00 | 90 | 1013.1 |
| 20260901104852 | 74 | 137 | 1.0 | 4.0 | 0.00 | 0.00 | 0.00 | 90 | 1013.1 |
| 20260901104353 | 74 | 144 | 2.0 | 4.0 | 0.00 | 0.00 | 0.00 | 90 | 1013.0 |
| 20260901103352 | 74 | 153 | 2.0 | 4.0 | 0.00 | 0.00 | 0.00 | 90 | 1013.1 |
| 20260901102351 | 74 | 121 | 1.0 | 3.0 | 0.00 | 0.00 | 0.00 | 90 | 1013.1 |
| 20260901101353 | 74 | 108 | 2.0 | 4.0 | 0.00 | 0.00 | 0.00 | 90 | 1013.1 |
| 20260901100852 | 74 | 133 | 2.0 | 4.0 | 0.00 | 0.00 | 0.00 | 90 | 1013.1 |
| 20260901100352 | 74 | 162 | 1.0 | 3.0 | 0.00 | 0.00 | 0.00 | 90 | 1013.1 |
| 20260901095852 | 74 | 120 | 1.0 | 3.0 | 0.00 | 0.00 | 0.00 | 90 | 1013.3 |
| 20260901095352 | 73 | 120 | 1.0 | 3.0 | 0.00 | 0.00 | 0.00 | 90 | 1013.3 |
| 20260901094851 | 73 | 120 | 0.0 | 2.0 | 0.00 | 0.00 | 0.00 | 90 | 1013.4 |
| 20260901094351 | 73 | 9 | 0.0 | 1.0 | 0.00 | 0.00 | 0.00 | 90 | 1013.5 |
| 20260901093851 | 73 | 196 | 0.0 | 1.0 | 0.00 | 0.00 | 0.00 | 90 | 1013.5 |
| 20260901093352 | 73 | 221 | 0.0 | 1.0 | 0.00 | 0.00 | 0.00 | 90 | 1013.5 |
| 20260901092851 | 73 | 221 | 0.0 | 1.0 | 0.00 | 0.00 | 0.00 | 90 | 1013.4 |
| 20260901092351 | 73 | 9 | 0.0 | 1.0 | 0.00 | 0.00 | 0.00 | 90 | 1013.5 |
| 20260901091836 | 73 | 334 | 1.0 | 2.0 | 0.00 | 0.00 | 0.00 | 90 | 1013.6 |
| 20260901091336 | 73 | 137 | 1.0 | 2.0 | 0.00 | 0.00 | 0.00 | 90 | 1013.5 |
| 20260901090326 | 73 | 111 | 1.0 | 2.0 | 0.00 | 0.00 | 0.00 | 90 | 1013.5 |
| 20260901085826 | 73 | 178 | 1.0 | 2.0 | 0.00 | 0.00 | 0.00 | 90 | 1013.4 |
| 20260901085327 | 73 | 153 | 1.0 | 2.0 | 0.00 | 0.00 | 0.00 | 90 | 1013.4 |
| 20260901084825 | 73 | 9 | 0.0 | 2.0 | 0.00 | 0.00 | 0.00 | 90 | 1013.5 |
| 20260901084325 | 73 | 309 | 1.0 | 2.0 | 0.00 | 0.00 | 0.00 | 90 | 1013.5 |
| 20260901083825 | 73 | 325 | 1.0 | 2.0 | 0.00 | 0.00 | 0.00 | 90 | 1013.5 |
| 20260901083325 | 73 | 22 | 1.0 | 1.0 | 0.00 | 0.00 | 0.00 | 90 | 1013.4 |
| 20260901082325 | 73 | 325 | 0.0 | 1.0 | 0.00 | 0.00 | 0.00 | 90 | 1013.4 |
| 20260901081825 | 74 | 26 | 0.0 | 1.0 | 0.00 | 0.00 | 0.00 | 90 | 1013.3 |
| 20260901081325 | 74 | 137 | 0.0 | 1.0 | 0.00 | 0.00 | 0.00 | 90 | 1013.4 |
| 20260901080824 | 74 | 120 | 0.0 | 1.0 | 0.00 | 0.00 | 0.00 | 90 | 1013.5 |
| 20260901080324 | 74 | 67 | 0.0 | 1.0 | 0.00 | 0.00 | 0.00 | 90 | 1013.5 |
| 20260901075824 | 74 | 51 | 0.0 | 2.0 | 0.00 | 0.00 | 0.00 | 90 | 1013.5 |
| 20260901075324 | 74 | 205 | 0.0 | 2.0 | 0.00 | 0.00 | 0.00 | 90 | 1013.4 |
| 20260901074824 | 74 | 238 | 1.0 | 3.0 | 0.00 | 0.00 | 0.00 | 90 | 1013.5 |
| 20260901074325 | 74 | 247 | 2.0 | 3.0 | 0.00 | 0.00 | 0.00 | 90 | 1013.6 |
| 20260901073824 | 74 | 232 | 1.0 | 3.0 | 0.00 | 0.00 | 0.00 | 90 | 1013.6 |
| 20260901073324 | 74 | 119 | 1.0 | 3.0 | 0.00 | 0.00 | 0.00 | 90 | 1013.6 |
| 20260901072823 | 74 | 93 | 1.0 | 3.0 | 0.00 | 0.00 | 0.00 | 90 | 1013.7 |